Regional Weather Roundup
Issued by NWS

Home | Current Version | Previous Version | Text Only | Print | Product List | Glossary On
Versions: 1 2 3 4 5 6 7 8 9 10 11 12 13 14 15 16 17 18 19 20 21 22 23 24 25 26 27
000
ASUS44 KJAN 201810
RWRMS

MISSISSIPPI HOURLY WEATHER ROUNDUP
NATIONAL WEATHER SERVICE JACKSON MS
100 PM CDT THU JUL 20 2017

NOTE: "FAIR: INDICATES FEW OR NO CLOUDS BELOW 12,000 FEET WITH NO
SIGNIFICANT WEATHER AND/OR OBSTRUCTIONS TO VISIBILITY.

MSZ001>002-007>008-010>013-018>021-025>028-034>036-201900-
NORTHWEST MISSISSIPPI

CITY           SKY/WX    TMP DP  RH WIND       PRES   REMARKS
BATESVILLE     FAIR      93  72  50 W5        30.12F HX 100
CLARKSDALE       N/A     95  77  55 VRB6      30.11F HX 109
CLEVELAND      FAIR      92  74  56 CALM      30.10F HX 101
GREENWOOD      SUNNY     94  75  54 VRB3      30.11F HX 105
6HR MIN TEMP:  76; 6HR MAX TEMP:  94;

GREENVILLE     SUNNY     93  72  50 CALM      30.11F HX 101
6HR MIN TEMP:  76; 6HR MAX TEMP:  94;

OLIVE BRANCH   MOSUNNY  N/A N/A N/A CALM      30.11F
OXFORD         FAIR      91  70  49 NW6       30.14F HX  97
TUNICA           N/A     93  72  49 W3        30.11F HX 100
WINONA         MOCLDY    89  75  63 CALM      30.12F HX  98
$$

MSZ003>006-009-014>017-022>024-029>033-037>039-201900-
NORTHEAST MISSISSIPPI

CITY           SKY/WX    TMP DP  RH WIND       PRES   REMARKS
COLUMBUS AFB   SUNNY     93  78  61 W7        30.10F HX 108
6HR MIN TEMP:  76; 6HR MAX TEMP:  93;

CORINTH        FAIR      93  72  49 CALM      30.11F HX 100
STARKVILLE     FAIR      91  73  55 NW6       30.13F HX 100
TUPELO         MOSUNNY   94  70  45 VRB5      30.11F HX 100
6HR MIN TEMP:  79; 6HR MAX TEMP:  96;

$$

MSZ040-058-201900-
CENTRAL MISSISSIPPI

CITY           SKY/WX    TMP DP  RH WIND       PRES   REMARKS
JACKSON INTL   MOSUNNY   92  71  50 CALM      30.12F HX  98
6HR MIN TEMP:  76; 6HR MAX TEMP:  96;

JACKSON HAWKNS SUNNY     94  69  44 CALM      30.13F HX  99
6HR MIN TEMP:  76; 6HR MAX TEMP:  94;

MADISON        FAIR      90  72  55 W3        30.12F HX  96
MERIDIAN KEY   SUNNY     94  75  54 NW7       30.12F HX 105
6HR MIN TEMP:  74; 6HR MAX TEMP:  95;

MERIDIAN NAS   MOSUNNY   94  71  47 VRB7      30.12F HX 101
6HR MIN TEMP:  77; 6HR MAX TEMP:  94;

RAYMOND          N/A     93  73  52 CALM      30.12F HX 102
VICKSBURG VKS  CLEAR     93  72  49 VRB5      30.08F HX 100
$$

MSZ059>079-201900-
SOUTH MISSISSIPPI

CITY           SKY/WX    TMP DP  RH WIND       PRES   REMARKS
COLUMBIA       FAIR      93  73  52 VRB3      30.14F HX 102
HATTIESBURG    SUNNY     94  72  48 NE8       30.11F HX 102
LAUREL         FAIR      92  72  51 NW7       30.12F HX 100
MCCOMB         MOSUNNY   93  69  45 VRB3      30.12F HX  98
6HR MIN TEMP:  76; 6HR MAX TEMP:  93;

NATCHEZ        NOT AVBL
PINE BELT      MOSUNNY   93  72  49 VRB3      30.13F HX 100
6HR MIN TEMP:  75; 6HR MAX TEMP:  93;

$$

MSZ080>082-201900-
COASTAL MISSISSIPPI

CITY           SKY/WX    TMP DP  RH WIND       PRES   REMARKS
BAY ST LOUIS   MOSUNNY   93  73  52 VRB6      30.09F HX 102
BILOXI         MOSUNNY   92  77  60 SW8       30.09F HX 106
6HR MIN TEMP:  80; 6HR MAX TEMP:  92;

PASCAGOULA     MOSUNNY   95  72  47 N6        30.09F HX 103
6HR MIN TEMP:  78; 6HR MAX TEMP:  95;

GULFPORT       PTSUNNY   93  76  57 SW6       30.08F HX 105
6HR MIN TEMP:  79; 6HR MAX TEMP:  95;

$$

LAZ007>009-015>016-023>026-201900-
NORTHEAST LOUISIANA

CITY           SKY/WX    TMP DP  RH WIND       PRES   REMARKS
BASTROP        MOCLDY    92  73  53 CALM      30.12F HX 101
TALLULAH/VBURG MOSUNNY   96  73  47 N5        30.11F HX 105
6HR MIN TEMP:  75; 6HR MAX TEMP:  97;

VIDALIA        FAIR      90  76  65 CALM      30.10F HX 101
$$




USA.gov is the U.S. government's official web portal to all federal, state and local government web resources and services.